Change the Weather History Date:

Monday, May 13, 2013

  Actual Average Record
Temperature  
Mean Temperature 40 °F 58 °F  
Max Temperature 48 °F 71 °F 87 °F (2014)
Min Temperature 32 °F 45 °F 30 °F (1977)
Degree Days  
Heating Degree Days 25    
Month to date heating degree days  
Since 1 July heating degree days  
Cooling Degree Days 0    
Month to date cooling degree days  
Year to date cooling degree days  
Moisture  
Dew Point 25 °F    
Average Humidity 60    
Maximum Humidity 93    
Minimum Humidity 30    
Precipitation  
Precipitation 0.00 in 0.13 in 0.14 in (2012)
Month to date precipitation 1.79  
Year to date precipitation 14.66  
Snow  
Snow 0.00 in - - ()
Month to date snowfall  
Since 1 July snowfall  
Snow Depth -    
Sea Level Pressure  
Sea Level Pressure 30.13 in    
Wind  
Wind Speed 4 mph (NW)    
Max Wind Speed 18 mph    
Max Gust Speed 23 mph    
Visibility 10 miles    
Events      
T = Trace of Precipitation, MM = Missing Value Source: NWS Daily Summary

Daily Weather History Graph

Daily Weather History Graph

Search for Another Location

Airport or City:

Trip Planner

Search our weather history database for the weather conditions in past years. The results will help you decide how hot, cold, wet, or windy it might be!

Date:

Astronomy

May. 13, 2013 Rise Set
Actual Time 6:13 AM EDT 8:23 PM EDT
Civil Twilight 5:43 AM EDT 8:52 PM EDT
Nautical Twilight 5:07 AM EDT 9:28 PM EDT
Astronomical Twilight 4:29 AM EDT 10:07 PM EDT
Moon 8:58 AM EDT (5/13) 11:31 PM EDT (5/13)
Length of Visible Light 15h 08m
Length of Day
14h 10m
Waxing Crescent, 12% of the Moon is Illuminated
May 13
Waxing Crescent
May 18
First Quarter
May 25
Full
May 31
Last Quarter
Jun 8
New

Hourly Weather History & Observations

Time (EDT) Temp. Windchill Dew Point Humidity Pressure Visibility Wind Dir Wind Speed Gust Speed Precip Events Conditions
12:15 AM 35.6 °F - 28.4 °F 75% 30.10 in 10.0 mi Calm Calm - N/A   Scattered Clouds
12:35 AM 37.4 °F 34.9 °F 26.6 °F 65% 30.10 in 10.0 mi WNW 3.5 mph - N/A   Mostly Cloudy
12:55 AM 39.2 °F 34.2 °F 26.6 °F 61% 30.09 in 10.0 mi NNW 6.9 mph - N/A   Scattered Clouds
1:15 AM 39.2 °F 34.2 °F 24.8 °F 56% 30.09 in 10.0 mi NNW 6.9 mph - N/A   Clear
1:35 AM 39.2 °F 35.0 °F 24.8 °F 56% 30.09 in 10.0 mi NNW 5.8 mph - N/A   Clear
1:55 AM 37.4 °F 32.8 °F 23.0 °F 56% 30.09 in 10.0 mi NNW 5.8 mph - N/A   Clear
2:15 AM 35.6 °F - 24.8 °F 65% 30.08 in 10.0 mi Calm Calm - N/A   Clear
2:35 AM 33.8 °F - 26.6 °F 75% 30.07 in 10.0 mi Calm Calm - N/A   Clear
2:55 AM 33.8 °F - 26.6 °F 75% 30.07 in 10.0 mi Calm Calm - N/A   Clear
3:15 AM 35.6 °F - 23.0 °F 60% 30.06 in 10.0 mi Calm Calm - N/A   Clear
3:35 AM 35.6 °F - 23.0 °F 60% 30.07 in 10.0 mi Calm Calm - N/A   Clear
3:55 AM 35.6 °F - 23.0 °F 60% 30.07 in 10.0 mi Calm Calm - N/A   Clear
4:15 AM 33.8 °F - 23.0 °F 65% 30.07 in 10.0 mi Calm Calm - N/A   Clear
4:35 AM 32.0 °F - 26.6 °F 80% 30.08 in 10.0 mi Calm Calm - N/A   Clear
4:55 AM 32.0 °F 28.7 °F 24.8 °F 75% 30.08 in 10.0 mi SSW 3.5 mph - N/A   Clear
5:15 AM 32.0 °F 28.7 °F 24.8 °F 75% 30.09 in 10.0 mi SW 3.5 mph - N/A   Clear
5:35 AM 32.0 °F - 24.8 °F 75% 30.09 in 10.0 mi Calm Calm - N/A   Clear
5:55 AM 32.0 °F 27.5 °F 24.8 °F 75% 30.09 in 10.0 mi West 4.6 mph - N/A   Clear
6:15 AM 33.8 °F 30.8 °F 24.8 °F 70% 30.10 in 10.0 mi West 3.5 mph - N/A   Clear
6:35 AM 32.0 °F - 26.6 °F 80% 30.11 in 10.0 mi Calm Calm - N/A   Clear
6:55 AM 33.8 °F - 26.6 °F 75% 30.11 in 10.0 mi Calm Calm - N/A   Clear
7:15 AM 33.8 °F 30.8 °F 24.8 °F 70% 30.12 in 10.0 mi West 3.5 mph - N/A   Scattered Clouds
7:35 AM 33.8 °F 30.8 °F 26.6 °F 75% 30.12 in 10.0 mi West 3.5 mph - N/A   Scattered Clouds
7:55 AM 35.6 °F 30.7 °F 26.6 °F 70% 30.12 in 10.0 mi West 5.8 mph - N/A   Scattered Clouds
8:15 AM 37.4 °F 33.8 °F 26.6 °F 65% 30.12 in 10.0 mi West 4.6 mph - N/A   Clear
8:35 AM 37.4 °F 32.8 °F 26.6 °F 65% 30.13 in 10.0 mi West 5.8 mph - N/A   Clear
8:55 AM 41.0 °F 36.4 °F 26.6 °F 57% 30.14 in 10.0 mi West 6.9 mph - N/A   Clear
9:15 AM 41.0 °F 37.1 °F 26.6 °F 57% 30.14 in 10.0 mi West 5.8 mph - N/A   Mostly Cloudy
9:35 AM 41.0 °F 35.2 °F 23.0 °F 49% 30.15 in 10.0 mi NW 9.2 mph - N/A   Mostly Cloudy
9:55 AM 41.0 °F 34.7 °F 24.8 °F 53% 30.16 in 10.0 mi NW 10.4 mph - N/A   Overcast
10:15 AM 42.8 °F 37.5 °F 24.8 °F 49% 30.16 in 10.0 mi NNW 9.2 mph - N/A   Scattered Clouds
10:35 AM 42.8 °F 40.1 °F 23.0 °F 46% 30.16 in 10.0 mi NW 4.6 mph - N/A   Scattered Clouds
10:55 AM 44.6 °F 42.2 °F 24.8 °F 46% 30.17 in 10.0 mi NNW 4.6 mph - N/A   Mostly Cloudy
11:15 AM 42.8 °F 38.6 °F 23.0 °F 46% 30.17 in 10.0 mi West 6.9 mph - N/A   Overcast
11:35 AM 42.8 °F 37.5 °F 23.0 °F 46% 30.17 in 10.0 mi West 9.2 mph - N/A   Mostly Cloudy
11:55 AM 44.6 °F 39.7 °F 21.2 °F 39% 30.17 in 10.0 mi WNW 9.2 mph 18.4 mph N/A   Overcast
12:15 PM 46.4 °F 42.4 °F 21.2 °F 37% 30.15 in 10.0 mi NW 8.1 mph 16.1 mph N/A   Mostly Cloudy
12:35 PM 46.4 °F 40.7 °F 21.2 °F 37% 30.15 in 10.0 mi NW 12.7 mph 19.6 mph N/A   Mostly Cloudy
12:55 PM 44.6 °F 40.2 °F 19.4 °F 37% 30.15 in 10.0 mi West 8.1 mph 19.6 mph N/A   Mostly Cloudy
1:15 PM 48.2 °F - 17.6 °F 30% 30.14 in 10.0 mi West 10.4 mph 19.6 mph N/A   Mostly Cloudy
1:35 PM 44.6 °F 40.7 °F 21.2 °F 39% 30.14 in 10.0 mi West 6.9 mph 20.7 mph N/A   Overcast
1:55 PM 46.4 °F 42.9 °F 19.4 °F 34% 30.13 in 10.0 mi NW 6.9 mph - N/A   Overcast
2:15 PM 46.4 °F 40.4 °F 19.4 °F 34% 30.13 in 10.0 mi West 13.8 mph 18.4 mph N/A   Mostly Cloudy
2:35 PM 46.4 °F 43.5 °F 19.4 °F 34% 30.12 in 10.0 mi NW 5.8 mph - N/A   Overcast
2:55 PM 44.6 °F 38.8 °F 21.2 °F 39% 30.12 in 10.0 mi North 11.5 mph 16.1 mph N/A   Overcast
3:15 PM 46.4 °F 41.5 °F 21.2 °F 37% 30.12 in 10.0 mi NNW 10.4 mph 17.3 mph N/A   Overcast
3:35 PM 46.4 °F 41.5 °F 19.4 °F 34% 30.12 in 10.0 mi NW 10.4 mph 16.1 mph N/A   Mostly Cloudy
4:35 PM 46.4 °F 43.5 °F 19.4 °F 34% 30.10 in 10.0 mi WNW 5.8 mph 17.3 mph N/A   Mostly Cloudy
4:55 PM 48.2 °F - 21.2 °F 34% 30.11 in 10.0 mi WNW 8.1 mph 17.3 mph N/A   Mostly Cloudy
5:15 PM 46.4 °F 42.4 °F 21.2 °F 37% 30.11 in 10.0 mi West 8.1 mph - N/A   Mostly Cloudy
5:35 PM 44.6 °F 38.8 °F 21.2 °F 39% 30.11 in 10.0 mi NNW 11.5 mph 19.6 mph N/A   Overcast
5:55 PM 44.6 °F 36.9 °F 24.8 °F 46% 30.12 in 10.0 mi NNW 18.4 mph 23.0 mph N/A   Overcast
6:15 PM 44.6 °F 40.7 °F 28.4 °F 53% 30.11 in 10.0 mi North 6.9 mph - N/A   Mostly Cloudy
6:35 PM 44.6 °F 38.8 °F 28.4 °F 53% 30.11 in 10.0 mi North 11.5 mph 16.1 mph N/A   Scattered Clouds
6:55 PM 42.8 °F 35.4 °F 28.4 °F 57% 30.12 in 10.0 mi NNE 15.0 mph 20.7 mph N/A   Mostly Cloudy
7:35 PM 41.0 °F 37.1 °F 30.2 °F 65% 30.13 in 10.0 mi North 5.8 mph - N/A   Overcast
8:15 PM 39.2 °F 35.9 °F 30.2 °F 70% 30.15 in 10.0 mi North 4.6 mph - N/A   Mostly Cloudy
8:35 PM 39.2 °F 33.6 °F 30.2 °F 70% 30.15 in 10.0 mi NNE 8.1 mph - N/A   Scattered Clouds
8:55 PM 37.4 °F - 30.2 °F 75% 30.15 in 10.0 mi Calm Calm - N/A   Clear
9:15 PM 35.6 °F - 30.2 °F 81% 30.16 in 10.0 mi Calm Calm - N/A   Clear
9:35 PM 35.6 °F - 30.2 °F 81% 30.17 in 10.0 mi Calm Calm - N/A   Clear
9:55 PM 33.8 °F - 30.2 °F 87% 30.18 in 10.0 mi Calm Calm - N/A   Clear
10:15 PM 33.8 °F - 30.2 °F 87% 30.19 in 10.0 mi Calm Calm - N/A   Clear
10:35 PM 32.0 °F - 30.2 °F 93% 30.19 in 10.0 mi Calm Calm - N/A   Clear
10:55 PM 33.8 °F - 30.2 °F 87% 30.20 in 10.0 mi Calm Calm - N/A   Clear
11:15 PM 33.8 °F - 30.2 °F 87% 30.20 in 10.0 mi Calm Calm - N/A   Clear
11:35 PM 32.0 °F - 30.2 °F 93% 30.19 in 10.0 mi Calm Calm - N/A   Clear
11:55 PM 32.0 °F - 30.2 °F 93% 30.20 in 10.0 mi Calm Calm - N/A   Clear